STARLINK-3106, 49164

Orbit data source: Space-Track

STARLINK-3106, 49164 is a payload satellite owned by SpaceX/Seattle (US) in LEO that was launched on Tue, 14 Sep 2021 UTC via an FALCON 9 launch vehicle from the Air Force Western Test Range (AFWTR). Payload-class satellites include a variety of spacecraft equipped with specific instruments for various scientific and technological missions. These include communications satellites like Starlink; space stations such as the ISS; scientific satellites like the Hubble; Earth observation satellites from companies like Planet Labs, Umbra, and HawkEye 360; GPS; miniature CubeSats for education and research; and military/defense satellites.

Loading next visibility...
Identifier
49164, 2021-082AL
Orbit
LEO
Country
Flag of USUS
Related business
Manufacturer
SpaceX/Seattle
Mission
Operational Commercial Communications
Bus & Motor
STARLINK, Unknown motor
Mass
297 kg wet, ~275 kg dry
Launch date (UTC)
2021-09-14 (4 years ago)
Launch vehicle
FALCON 9
Launch site
Air Force Western Test Range (AFWTR)
Object type
Payload
Rocket body
Debris
Shape & HBR
Box + 1 Pan, 10.1 m
Radar Cross Section
13.562 m², Large (>1 m²)

Expand to show TLE details & history
Last TLE update: 11 hours ago

TLE from 11 hours ago
0 STARLINK-3106
1 49164U 21082AL  26071.97662461 -.00000003  00000-0  74970-5 0  9990
2 49164  69.9986 266.1627 0002335 264.9403  95.1490 14.98329105248121
Epoch: 2026-03-12T23:26Z
TLE epoch observation values (Epoch: 2026-03-12T23:26:20.366Z)
Latitude
0.00003°
Longitude
103.95907°
Altitude
574.628 km
Speed
7.574 km/s
True Right ascension
17h 44m 39s
True Declination
0° 00' 00"
Sunlit
Object was in daylight at epoch
Visualization orbit readout
Latitude
Unknown
Longitude
Unknown
Altitude
Unknown
Speed
Unknown
Apparent Right ascension
Unknown
Apparent Declination
Unknown
Sunlit
N/A
Visualization observer readout
Local Sidereal Time
15:06:17
Azimuth
Unknown
Elevation
Unknown
Doppler factor
Unknown
Orbital elements
Apogee altitude
571.629 km
Perigee altitude
568.385 km
Semi-major axis
6,948.144 km
Eccentricity
0.00023
Inclination
69.9986°
RAAN
266.1627°
Arg. of periapsis
264.9403°
True anomaly
95.17565°
Mean anomaly
95.149°
Eccentric anomaly
95.16232°
Mean motion
3.74749 °/min
Orbital period
96.06 mins
BSTAR
0.000007497
Loading maneuver chart data...
Computing Atmospheric mass density...

Documentation

Showing up to 5 results
|